星链-4057 (STARLINK-4057 )

导读

STARLINK-4057是美国SpaceX公司星链星座中的一颗低轨通信卫星,于2022年7月24日发射入轨。星链项目旨在打造全球卫星互联网星座,该卫星属于第一代星链V1.5批次,重约295公斤,运行在340-614公里近地轨道,配备氪离子推进器与相控阵通信天线,支持Ku/Ka波段高速卫星互联网接入,可提供低延迟宽带服务,服务全球覆盖,卫星设计寿命约5年。

基本信息
目录编号:
53269
目录名称:
STARLINK-4057
国际标识:
2022-086AD
轨道中心:
EARTH
卫星名称:
星链-4057
卫星全名:
星链-4057 (STARLINK-4057 )
卫星状态:
已陨落 最后检测时间 2026-03-27
发射日期:
2022-07-24 UTC
国别 :
美国 (US)
星等 :
--
该卫星已列入 空间交会检测服务 Space Conjunction Data Service (SCDS) ,当前飞行风险评估等级: 无高风险
轨道信息
数据来源 国际轨道数据
星历时间: 2026-03-28T03:35:54+0800
轨道信息已过期168天
半长轴: 6530.068km
偏心率: 0.0005627
轨道倾角: 53.201°
近地点辐角 249.097°
升交点赤经 79.330°
平近点角 110.948°
近地点: 148.256km
远地点: 155.606km
周期: 87.526分钟
每日圈数: 16.452287
详细信息
固有亮度:
5
最大亮度:
2.5
卫星平台:
Starlink v1.5
覆盖范围:
全球
运营商:
太空探索技术公司
运营商所在国:
美国
制造商(研发单位):
太空探索技术公司
制造商所在国:
美国
使用方式:
暂无
卫星简介
星链(Starlink)计划是由太空探索技术公司(SpaceX)提出的一个巨型低轨卫星互联网星座项目,计划在2019年至2024年间在太空搭建由约1.2万颗卫星组成的“星链”网络,其中1584颗将部署在地球上空550千米处的近地轨道,并从2020年开始工作。该卫星仍在工作。
与全量物体交会距离演化趋势
与全量物体交会风险概率演化趋势